Weather History for Key West NAF, FL

Change the Weather History Date:

Saturday, March 10, 2012

  Actual Average Record
Temperature  
Mean Temperature 76 °F -  
Max Temperature 80 °F 77 °F 84 °F (1992)
Min Temperature 73 °F 67 °F 58 °F (1965)
Cooling Degree Days 12    
Growing Degree Days 26 (Base 50)    
Moisture  
Dew Point 68 °F    
Average Humidity 76    
Maximum Humidity 88    
Minimum Humidity 61    
Precipitation  
Precipitation 0.00 in - - ()
Sea Level Pressure  
Sea Level Pressure 30.13 in    
Wind  
Wind Speed 9 mph (NE)    
Max Wind Speed 15 mph    
Max Gust Speed 21 mph    
Visibility 10 miles    
Events      
Averages and records for this station are not official NWS values.
T = Trace of Precipitation, MM = Missing Value Source: NWS Daily Summary

Daily Weather History Graph

Daily Weather History Graph

Search for Another Location

Airport:

Trip Planner

Search our weather history database for the weather conditions in past years. The results will help you decide how hot, cold, wet, or windy it might be!

Date:

Astronomy

Mar. 10, 2012 Rise Set
Actual Time 6:40 AM EST 6:33 PM EST
Civil Twilight 6:17 AM EST 6:56 PM EST
Nautical Twilight 5:51 AM EST 7:22 PM EST
Astronomical Twilight 5:24 AM EST 7:49 PM EST
Moon 9:16 PM EST (3/10) 7:58 AM EST (3/10)
Length of Visible Light 12h 39m
Length of Day
11h 53m
Waning Gibbous, 93% of the Moon is Illuminated
Mar 10
Waning Gibbous
Mar 14
Last Quarter
Mar 22
New
Mar 30
First Quarter
Apr 6
Full

Hourly Weather History & Observations

Time (EST) Temp. Heat Index Dew Point Humidity Pressure Visibility Wind Dir Wind Speed Gust Speed Precip Events Conditions
12:53 AM - - - N/A% 30.13 in 10.0 mi NE 5.8 mph - N/A   Clear
1:53 AM - - - N/A% 30.12 in 10.0 mi NE 8.1 mph - N/A   Partly Cloudy
2:11 AM - - - N/A% 30.11 in 10.0 mi NE 6.9 mph - N/A   Mostly Cloudy
2:35 AM - - - N/A% 30.10 in 10.0 mi NNE 10.4 mph - N/A   Mostly Cloudy
2:53 AM - - - N/A% 30.10 in 10.0 mi NNE 6.9 mph - N/A   Mostly Cloudy
3:05 AM - - - N/A% 30.09 in 10.0 mi NNE 8.1 mph - N/A   Scattered Clouds
3:53 AM - - - N/A% 30.09 in 10.0 mi NNE 8.1 mph - N/A   Clear
4:53 AM - - - N/A% 30.09 in 10.0 mi NNE 8.1 mph - N/A   Clear
5:53 AM - - - N/A% 30.11 in 10.0 mi NE 4.6 mph - N/A   Clear
6:01 AM 73.4 °F - 69.8 °F 88% 30.11 in 10.0 mi NNE 6.9 mph - N/A   Clear
6:53 AM 73.4 °F - 69.1 °F 86% 30.12 in 10.0 mi NNE 8.1 mph - N/A   Scattered Clouds
7:53 AM 75.2 °F - 70.0 °F 84% 30.14 in 10.0 mi NE 11.5 mph - N/A   Scattered Clouds
8:36 AM 75.2 °F - 69.8 °F 83% 30.16 in 10.0 mi NNE 12.7 mph - N/A   Mostly Cloudy
8:53 AM 75.2 °F - 70.0 °F 84% 30.16 in 10.0 mi NNE 10.4 mph 19.6 mph N/A   Mostly Cloudy
9:53 AM 75.2 °F - 69.1 °F 81% 30.17 in 10.0 mi NNE 11.5 mph 20.7 mph N/A   Mostly Cloudy
9:55 AM 77.0 °F - 69.8 °F 78% 30.18 in 10.0 mi NE 13.8 mph - N/A   Scattered Clouds
10:53 AM 77.0 °F - 69.1 °F 76% 30.18 in 10.0 mi NNE 13.8 mph - N/A   Scattered Clouds
11:53 AM 77.0 °F - 70.0 °F 79% 30.17 in 10.0 mi NE 13.8 mph 20.7 mph N/A   Scattered Clouds
12:53 PM 77.0 °F - 69.1 °F 76% 30.16 in 10.0 mi NNE 12.7 mph 18.4 mph N/A   Scattered Clouds
1:53 PM 77.0 °F - 66.0 °F 69% 30.14 in 10.0 mi East 12.7 mph - N/A   Scattered Clouds
2:53 PM 80.6 °F 83.2 °F 68.0 °F 65% 30.12 in 10.0 mi East 15.0 mph - N/A   Scattered Clouds
3:53 PM 80.6 °F 82.7 °F 66.0 °F 61% 30.11 in 10.0 mi ESE 13.8 mph - N/A   Scattered Clouds
4:53 PM 78.8 °F - 64.9 °F 62% 30.11 in 10.0 mi East 11.5 mph - N/A   Scattered Clouds
5:53 PM 78.8 °F - 64.9 °F 62% 30.11 in 10.0 mi East 12.7 mph - N/A   Scattered Clouds
6:53 PM 75.2 °F - 64.9 °F 70% 30.12 in 10.0 mi East 11.5 mph - N/A   Scattered Clouds
7:53 PM 73.4 °F - 64.9 °F 75% 30.13 in 10.0 mi East 9.2 mph - N/A   Partly Cloudy
8:53 PM 73.4 °F - 66.0 °F 78% 30.14 in 10.0 mi East 9.2 mph - N/A   Partly Cloudy
9:53 PM 73.4 °F - 66.0 °F 78% 30.15 in 10.0 mi East 11.5 mph - N/A   Clear
10:53 PM - - - N/A% 30.16 in 10.0 mi East 8.1 mph - N/A   Clear
11:53 PM - - - N/A% 30.16 in 10.0 mi East 10.4 mph - N/A   Partly Cloudy